TimeEDT,TemperatureF,Dew PointF,Humidity,Sea Level PressureIn,VisibilityMPH,Wind Direction,Wind SpeedMPH,Gust SpeedMPH,PrecipitationIn,Events,Conditions,WindDirDegrees,DateUTC
12:04 AM,42.8,39.2,87,29.79,10.0,WNW,11.5,-,N/A,,Overcast,300,2013-05-27 04:04:00
12:33 AM,42.8,39.2,87,29.79,10.0,WNW,11.5,21.9,N/A,,Overcast,300,2013-05-27 04:33:00
12:54 AM,42.1,37.9,85,29.82,10.0,NW,11.5,20.7,0.00,,Overcast,310,2013-05-27 04:54:00
1:49 AM,42.8,37.4,81,29.80,10.0,WNW,11.5,18.4,N/A,,Overcast,300,2013-05-27 05:49:00
1:54 AM,42.1,37.9,85,29.83,10.0,NW,13.8,24.2,N/A,,Overcast,310,2013-05-27 05:54:00
2:54 AM,41.0,37.9,89,29.84,10.0,WNW,10.4,-,N/A,,Overcast,300,2013-05-27 06:54:00
3:54 AM,41.0,37.0,86,29.85,10.0,NW,10.4,17.3,N/A,,Overcast,320,2013-05-27 07:54:00
4:54 AM,39.9,36.0,86,29.88,10.0,NW,9.2,16.1,N/A,,Overcast,310,2013-05-27 08:54:00
5:54 AM,39.9,35.1,83,29.89,10.0,WNW,10.4,-,N/A,,Overcast,300,2013-05-27 09:54:00
6:36 AM,39.2,35.6,87,29.88,10.0,WNW,8.1,-,N/A,,Overcast,300,2013-05-27 10:36:00
6:54 AM,41.0,35.1,79,29.91,10.0,WNW,10.4,17.3,N/A,,Overcast,300,2013-05-27 10:54:00
7:54 AM,43.0,35.1,74,29.92,10.0,NNW,16.1,24.2,0.00,,Mostly Cloudy,340,2013-05-27 11:54:00
8:54 AM,43.0,36.0,76,29.93,10.0,WNW,9.2,18.4,0.00,,Mostly Cloudy,300,2013-05-27 12:54:00
9:29 AM,44.6,35.6,71,29.90,10.0,NW,10.4,-,N/A,,Mostly Cloudy,320,2013-05-27 13:29:00
9:54 AM,44.1,35.1,71,29.94,10.0,NW,13.8,23.0,0.00,Rain,Light Rain,310,2013-05-27 13:54:00
10:25 AM,46.4,35.6,66,29.92,10.0,WNW,11.5,16.1,0.00,,Mostly Cloudy,300,2013-05-27 14:25:00
10:52 AM,46.4,37.4,71,29.93,10.0,NNW,15.0,23.0,0.00,Rain,Light Rain,330,2013-05-27 14:52:00
10:54 AM,46.0,37.0,71,29.96,10.0,NNW,13.8,23.0,0.00,Rain,Light Rain,330,2013-05-27 14:54:00
11:54 AM,48.9,37.0,64,29.96,10.0,NW,18.4,31.1,0.00,,Mostly Cloudy,320,2013-05-27 15:54:00
12:54 PM,48.9,36.0,61,29.97,10.0,WNW,13.8,19.6,0.00,,Overcast,300,2013-05-27 16:54:00
1:54 PM,48.0,35.1,61,29.99,10.0,NNW,17.3,24.2,0.00,,Overcast,330,2013-05-27 17:54:00
2:54 PM,48.9,36.0,61,30.01,10.0,NW,13.8,24.2,0.00,Rain,Light Rain,310,2013-05-27 18:54:00
3:54 PM,50.0,36.0,59,30.02,10.0,North,13.8,24.2,0.00,Rain,Light Rain,350,2013-05-27 19:54:00
4:54 PM,51.1,36.0,56,30.03,10.0,NW,13.8,24.2,0.00,,Overcast,320,2013-05-27 20:54:00
5:54 PM,51.1,36.0,56,30.04,10.0,NNW,12.7,19.6,N/A,,Overcast,340,2013-05-27 21:54:00
6:54 PM,50.0,35.1,57,30.06,10.0,NNW,11.5,-,N/A,,Partly Cloudy,330,2013-05-27 22:54:00
7:54 PM,46.9,35.1,63,30.08,-9999.0,NNW,6.9,-,N/A,,Scattered Clouds,330,2013-05-27 23:54:00
8:54 PM,44.1,37.0,76,30.09,10.0,NW,3.5,-,N/A,,Partly Cloudy,310,2013-05-28 00:54:00
9:54 PM,44.1,37.0,76,30.11,10.0,NW,3.5,-,N/A,,Overcast,310,2013-05-28 01:54:00
10:54 PM,42.1,36.0,79,30.12,10.0,Calm,Calm,-,N/A,,Clear,0,2013-05-28 02:54:00
11:54 PM,39.0,35.1,86,30.13,10.0,West,3.5,-,N/A,,Clear,270,2013-05-28 03:54:00